Location: Plzen
(49.7500°N, 13.3670°E)
Time: 01:03:01
(UTC+02:00)

ISS - Visible Passes

Search period start: 19 May 2024 00:00
Search period end: 29 May 2024 00:00
Orbit: 410 x 414 km, 51.6° (Epoch: 18 May)

Date Brightness Start Highest point End Pass type
(mag) Time Alt. Az. Time Alt. Az. Time Alt. Az.
19 May -3.7 22:37:57 10° WNW 22:41:17 75° NNE 22:43:46 17° E visible
20 May -2.2 00:14:44 10° W 00:16:33 25° WSW 00:16:33 25° WSW visible
20 May -3.4 21:48:02 10° WNW 21:51:21 65° N 21:54:40 10° E visible
20 May -3.6 23:24:45 10° WNW 23:27:59 50° SSW 23:28:20 48° S visible
21 May -3.8 22:34:46 10° WNW 22:38:06 72° SSW 22:40:05 22° ESE visible
22 May -1.4 00:12:01 10° W 00:12:51 14° WSW 00:12:51 14° WSW visible
22 May -3.8 21:44:46 10° WNW 21:48:07 86° NNE 21:51:26 10° ESE visible
22 May -2.5 23:21:39 10° W 23:24:30 26° SW 23:24:35 26° SSW visible
23 May -3.1 22:31:27 10° W 22:34:35 39° SSW 22:36:17 22° SSE visible
24 May -3.5 21:41:18 10° WNW 21:44:35 58° SSW 21:47:50 10° SE visible
24 May -1.5 23:19:00 10° WSW 23:20:40 13° SW 23:20:45 13° SW visible
25 May -2.0 22:28:12 10° W 22:30:45 20° SW 22:32:26 14° S visible
26 May -2.5 21:37:44 10° W 21:40:43 30° SSW 21:43:41 10° SSE visible
